STARLINK-1506, 45747

Orbit data source: Space-Track

STARLINK-1506, 45747 is a payload satellite owned by SpaceX/Seattle (US) in LEO that was launched on Sat, 13 Jun 2020 UTC via an FALCON 9 launch vehicle from the Air Force Eastern Test Range (AFETR). Payload-class satellites include a variety of spacecraft equipped with specific instruments for various scientific and technological missions. These include communications satellites like Starlink; space stations such as the ISS; scientific satellites like the Hubble; Earth observation satellites from companies like Planet Labs, Umbra, and HawkEye 360; GPS; miniature CubeSats for education and research; and military/defense satellites.

Loading next visibility...
Identifier
45747, 2020-038T
Orbit
LEO
Country
Flag of USUS
Related business
Manufacturer
SpaceX/Seattle
Mission
Partially operational Commercial Communications
Bus & Motor
STARLINK, Unknown motor
Mass
260 kg wet, ~248 kg dry
Launch date (UTC)
2020-06-13 (6 years ago)
Launch vehicle
FALCON 9
Launch site
Air Force Eastern Test Range (AFETR)
Object type
Payload
Rocket body
Debris
Shape & HBR
Box + 1 Pan, 10.1 m
Radar Cross Section
13.562 m², Large (>1 m²)

Expand to show TLE details & history
Last TLE update: 19 hours ago

TLE from 19 hours ago
0 STARLINK-1506
1 45747U 20038T   26124.75269229  .00008033  00000-0  30443-3 0  9998
2 45747  53.0777 302.7292 0004120  81.3405 278.8060 15.27792054325251
Epoch: 2026-05-04T18:03Z
TLE epoch observation values (Epoch: 2026-05-04T18:03:52.613Z)
Latitude
-0.00006°
Longitude
169.12256°
Altitude
482.873 km
Speed
7.625 km/s
True Right ascension
20h 10m 54s
True Declination
0° 00' 00"
Sunlit
Object was in daylight at epoch
Visualization orbit readout
Latitude
Unknown
Longitude
Unknown
Altitude
Unknown
Speed
Unknown
Apparent Right ascension
Unknown
Apparent Declination
Unknown
Sunlit
N/A
Visualization observer readout
Local Sidereal Time
20:34:24
Azimuth
Unknown
Elevation
Unknown
Doppler factor
Unknown
Orbital elements
Apogee altitude
485.51 km
Perigee altitude
479.857 km
Semi-major axis
6,860.821 km
Eccentricity
0.00041
Inclination
53.0777°
RAAN
302.7292°
Arg. of periapsis
81.3405°
True anomaly
278.75934°
Mean anomaly
278.806°
Eccentric anomaly
278.78267°
Mean motion
3.81926 °/min
Orbital period
94.26 mins
BSTAR
0.00030443
Loading maneuver chart data...
Computing Atmospheric mass density...

Documentation

Showing up to 5 results
|